Nantucket, MA

8:12 PM EDT on April 24, 2017 (GMT -0400)
Nantucket Memorial

Weather History for KACK - December, 2011

Change the Weather History Date:

Tuesday, December 6, 2011

  Actual Average Record
Temperature  
Mean Temperature 55 °F -  
Max Temperature 57 °F 46 °F 60 °F (2001)
Min Temperature 53 °F 32 °F 19 °F (1974)
Degree Days  
Heating Degree Days 10    
Growing Degree Days 5 (Base 50)    
Moisture  
Dew Point 54 °F    
Average Humidity 96    
Maximum Humidity 100    
Minimum Humidity 87    
Precipitation  
Precipitation 0.08 in - - ()
Sea Level Pressure  
Sea Level Pressure 30.08 in    
Wind  
Wind Speed 9 mph (SSW)    
Max Wind Speed 13 mph    
Max Gust Speed -    
Visibility 8 miles    
Events Rain    
Averages and records for this station are not official NWS values.
T = Trace of Precipitation, MM = Missing Value Source: NWS Daily Summary

Daily Weather History Graph

Daily Weather History Graph

Search for Another Location

Airport or City:

Trip Planner

Search our weather history database for the weather conditions in past years. The results will help you decide how hot, cold, wet, or windy it might be!

Date:

Astronomy

Dec. 06, 2011 Rise Set
Actual Time 6:51 AM EST 4:11 PM EST
Civil Twilight 6:20 AM EST 4:42 PM EST
Nautical Twilight 5:45 AM EST 5:16 PM EST
Astronomical Twilight 5:12 AM EST 5:49 PM EST
Moon 1:38 PM EST (12/6) 3:05 AM EST (12/6)
Length of Visible Light 10h 21m
Length of Day
9h 20m
Waxing Gibbous, 86% of the Moon is Illuminated
Dec 6
Waxing Gibbous
Dec 10
Full
Dec 17
Last Quarter
Dec 24
New
Jan 1
First Quarter

Hourly Weather History & Observations

Time (EST) Temp. Dew Point Humidity Pressure Visibility Wind Dir Wind Speed Gust Speed Precip Events Conditions
12:53 AM 53.1 °F 52.0 °F 96% 30.25 in 10.0 mi South 5.8 mph - N/A   Overcast
1:53 AM 54.0 °F 52.0 °F 93% 30.23 in 10.0 mi South 10.4 mph - N/A   Clear
2:53 AM 54.0 °F 52.0 °F 93% 30.21 in 10.0 mi South 10.4 mph - N/A   Clear
3:53 AM 53.1 °F 52.0 °F 96% 30.19 in 10.0 mi South 8.1 mph - N/A   Partly Cloudy
4:53 AM 53.1 °F 52.0 °F 96% 30.19 in 10.0 mi South 9.2 mph - N/A   Clear
5:53 AM 53.1 °F 52.0 °F 96% 30.18 in 10.0 mi South 8.1 mph - N/A   Clear
6:53 AM 53.1 °F 53.1 °F 100% 30.18 in 10.0 mi South 8.1 mph - N/A   Partly Cloudy
7:53 AM 54.0 °F 54.0 °F 100% 30.18 in 10.0 mi SSE 4.6 mph - N/A   Clear
8:53 AM 55.0 °F 54.0 °F 96% 30.17 in 10.0 mi South 6.9 mph - N/A   Scattered Clouds
9:53 AM 57.0 °F 54.0 °F 89% 30.15 in 10.0 mi South 10.4 mph - N/A   Clear
10:53 AM 57.9 °F 54.0 °F 87% 30.12 in 10.0 mi SSW 12.7 mph - N/A   Overcast
11:53 AM 55.9 °F 54.0 °F 93% 30.10 in 10.0 mi SSW 10.4 mph - N/A   Overcast
12:53 PM 57.0 °F 54.0 °F 89% 30.06 in 10.0 mi South 11.5 mph - N/A   Overcast
1:53 PM 55.4 °F 53.6 °F 94% 30.06 in 10.0 mi SSW 11.5 mph - N/A   Overcast
2:53 PM 55.9 °F 54.0 °F 93% 30.04 in 9.0 mi SSW 11.5 mph - N/A   Overcast
3:53 PM 55.9 °F 54.0 °F 93% 30.04 in 7.0 mi SSW 10.4 mph - 0.00 in Rain Light Rain
4:53 PM 55.9 °F 55.0 °F 97% 30.03 in 8.0 mi SSW 11.5 mph - 0.00 in   Overcast
5:53 PM 55.0 °F 55.0 °F 100% 30.03 in 8.0 mi SSW 10.4 mph - 0.00 in   Overcast
6:53 PM 55.9 °F 55.0 °F 97% 30.02 in 8.0 mi SSW 12.7 mph - 0.00 in   Overcast
7:53 PM 55.9 °F 55.0 °F 97% 30.01 in 8.0 mi SW 12.7 mph - 0.00 in   Overcast
8:53 PM 55.0 °F 54.0 °F 96% 30.01 in 7.0 mi SSW 9.2 mph - 0.00 in Rain Light Rain
9:53 PM 55.0 °F 54.0 °F 96% 29.98 in 6.0 mi SSW 9.2 mph - 0.01 in Rain Light Rain
10:53 PM 55.9 °F 55.0 °F 97% 29.98 in 5.0 mi SW 10.4 mph - 0.03 in Rain Rain
11:29 PM 55.4 °F 55.4 °F 100% 29.97 in 5.0 mi SW 12.7 mph - 0.03 in Rain Rain
11:37 PM 55.4 °F 55.4 °F 100% 29.97 in 6.0 mi SW 12.7 mph - 0.03 in Rain Light Rain
11:45 PM 55.4 °F 55.4 °F 100% 29.96 in 6.0 mi SW 11.5 mph - 0.04 in Rain Light Rain
11:53 PM 55.9 °F 55.0 °F 97% 29.96 in 6.0 mi SW 10.4 mph - 0.04 in Rain Light Rain